Regional Weather Roundup
Issued by NWS

Home | Current Version | Previous Version | Text Only | Print | Product List | Glossary On
Versions: 1 2 3 4 5 6 7 8 9 10 11 12 13 14 15 16 17 18 19 20 21 22 23 24 25 26 27 28 29 30 31 32 33 34 35 36 37 38 39 40 41 42 43 44 45 46 47 48 49 50
000
ASHW40 PHFO 161543
RWRHI

WEATHER ROUNDUP FOR HAWAII
NATIONAL WEATHER SERVICE HONOLULU HI
500 AM HST TUE SEP 16 2014

THIS IS AN AUTOMATED REPORT THAT HAS NOT BEEN QUALITY CONTROLLED.

NOTE..."FAIR" INDICATES FEW OR NO CLOUDS BELOW 12,000 FEET WITH NO
SIGNIFICANT WEATHER AND/OR OBSTRUCTIONS TO VISIBILITY.

* - THESE SITES REPORT LIMITED FIELDS

HIZ001>004-161600-
KAUAI-NIIHAU-

CITY           SKY/WX    TMP DP  RH WIND       PRES   REMARKS
LIHUE APT      CLEAR     72  67  84 W7        29.96R
PORT ALLEN*      N/A     70 N/A N/A NE6         N/A
POIPU*           N/A     72 N/A N/A N3          N/A
PRINCEVILLE*   NOT AVBL
KOKOLE POINT*  NOT AVBL
MOLOAA DAIRY*  NOT AVBL
WAIMEA HTS*      N/A     75  61  60 N3          N/A
PUU OPAE*        N/A     68  59  73 CALM        N/A
PUU LUA*       NOT AVBL
MAKAHA RIDGE*  NOT AVBL
$$

HIZ005>011-161600-
OAHU-

CITY           SKY/WX    TMP DP  RH WIND       PRES   REMARKS
HONOLULU       PTCLDY    78  70  76 NW7       29.93S
KALAELOA       CLEAR     71  67  87 CALM      29.95R
KANEOHE MCB    PTCLDY    77  73  87 NE6       29.94R
WHEELER FIELD  MOCLDY    73  69  87 NW5       29.96R
BELLOWS*         N/A    N/A N/A N/A NE10        N/A
KAHUKU*          N/A    N/A N/A N/A E1          N/A
WHEELER*       NOT AVBL
WAIANAE HARBOR NOT AVBL
DILLINGHAM*      N/A     75  72  88 SE1         N/A
KAHUKU TRN*      N/A     73  70  88 SE3         N/A
KAWAILOA*      NOT AVBL
KII*             N/A     75  72  88 S3          N/A
MAKUA RANGE*     N/A     75  70  83 E2          N/A
OAHU FOREST NW   N/A     68  68 100 NE8G17      N/A
SCHOFIELD BRK*   N/A     70  68  94 CALM        N/A
SCHOFIELD S*   NOT AVBL
WAIANAE VLY*     N/A     72  66  83 N3          N/A
KUAOKALA*        N/A     75  66  73 CALM        N/A
HONOULIUULI*   NOT AVBL
MOKUOLOE IS*     N/A    N/A N/A N/A MISG        N/A
PALEHUA*         N/A     81  70  69 CALM        N/A
WAIAWA PHB*    NOT AVBL
$$

HIZ012>013-161600-
MOLOKAI-

CITY           SKY/WX    TMP DP  RH WIND       PRES   REMARKS
MOLOKAI AIRPT  CLEAR     73  73 100 N6        29.95R
KALAUPAPA      NOT AVBL
MAKAPULAPAI*     N/A     73  72  94 SE3G9       N/A
MOLOKAI 1*       N/A     66  63  88 E1G12       N/A
PUU ALII*        N/A     60  59  97 E1G8        N/A
$$

HIZ016-161600-
KAHOOLAWE-

CITY           SKY/WX    TMP DP  RH WIND       PRES   REMARKS
KAHOOLAWE*       N/A     70 N/A N/A NE9G16      N/A
HAKIOAWA*      NOT AVBL
HONOKANAIA*      N/A     78  70  77 N10       29.94R
KANELOA*         N/A     75  70  83 VRB6G12   29.16S
KEALIALALO*    NOT AVBL
LUA MAKIKA*    NOT AVBL
$$

HIZ014>015-161600-
LANAI-

CITY           SKY/WX    TMP DP  RH WIND       PRES   REMARKS
LANAI CITY     FAIR      72  68  87 NE9       29.99S
LANAI 1*         N/A     72  72 100 NE15G23     N/A
$$

HIZ017>028-161600-
MAUI-

CITY           SKY/WX    TMP DP  RH WIND       PRES   REMARKS
KAHULUI        CLEAR     77  70  79 N3        29.93S
KAPALUA-W MAUI NOT AVBL
HANA AIRPORT   CLEAR     68  66  94 S5        29.97S
HANA*            N/A     70 N/A N/A S5          N/A
HALEAKALA SUMM   N/A     48  16  27 NW7G22      N/A
MAALAEA BAY*   NOT AVBL
HALEAKALA*     NOT AVBL
KAUPO GAP*     NOT AVBL
KULA 1*        NOT AVBL
$$

HIZ023>026-161600-
BIG ISLAND OF HAWAII COAST AND LOWER SLOPES-

CITY           SKY/WX    TMP DP  RH WIND       PRES   REMARKS
KAILUA KONA    CLEAR     78  71  79 CALM      29.91R
HILO           PTCLDY    72  64  76 W6        29.93R
HONOKAA*       NOT AVBL
KAWAIHAE MWT*    N/A     79 N/A N/A E2          N/A
KAWAIHAE*        N/A     79 N/A N/A E2          N/A
SOUTH POINT*     N/A     72 N/A N/A NE7         N/A
UPOLU AIRPORT*   N/A    N/A N/A N/A E8          N/A
KAMUELA*       SUNNY     63  63 100 NE9       30.07R
HAKALAU*         N/A     46  39  76 W5          N/A
KALOKO-HONOKO*   N/A     75  70  83 NE3       29.91
PALI 2*          N/A     64  61  88 N3          N/A
KEALAKOMO*       N/A     79  66  65 NW3         N/A
KAUPULEHU*       N/A     72  61  68 SE3         N/A
KAPAPALA*        N/A     68  67  96 CALM        N/A
LOWER KAHUKU*  NOT AVBL
PUHE CS*       NOT AVBL
PUHO CS*         N/A     76  67  74 NE1         N/A
PTA KEAMUKU*     N/A     61  59  94 E12         N/A
WAIKOLOA*        N/A     72  61  68 E10G16      N/A
$$

HIZ027>028-161600-
BIG ISLAND OF HAWAII INTERIOR AND SUMMMITS-

CITY           SKY/WX    TMP DP  RH WIND       PRES   REMARKS
BRADSHAW FIELD CLOUDY    53  51  93 N3        30.30R
MK VISITOR CEN NOT AVBL
MAUNA KEA*       N/A     41   3  20 CALM        N/A
MAUNA LOA*       N/A    N/A N/A N/A MISG        N/A
MAUNA LOA 1*     N/A    N/A N/A N/A MISG        N/A
PTA KIPUKA*      N/A     57  57 100 S1          N/A
PTA RANGE 17*    N/A     57  55  94 E3G10       N/A
PTA WEST*        N/A     57  55  94 SE6         N/A
NENE CABIN*    NOT AVBL
AHUMOA*          N/A     53  50  89 SE8         N/A
PTA PORTABLE*  NOT AVBL
PUU MALI*      NOT AVBL
$$

HIC003-161600-
NORTHWEST ISLANDS-

CITY           SKY/WX    TMP DP  RH WIND       PRES   REMARKS
MIDWAY ISLAND  CLOUDY    81  75  83 CALM      30.08F
MIDWAY NOS*    NOT AVBL
FRENCH FRIGATE NOT AVBL
$$

PHZ110>124-180-161600-
BUOY REPORTS

STATION/POSITION TIME  TEMP    WIND        PRES    WAVE   SWELL
                       AIR SEA DIR/SP/G            HT/PER HT/DIR
                 (UTC) (F)     (DEG/KT/KT) (MB)    (FT/S) (FT/D)
BUOY 51001       NOT AVBL
BUOY 51101       NOT AVBL
BUOY 51100       1500   79 81   40/ 10/ 12 1013.4R
BUOY 51003       1500   81 83   50/ 10/ 12 1013.0R   5/15   5
BUOY 51004       1411   78 81   60/  6/  8 1012.7R   5/14   5/180
BARBERS PT BUOY  NOT AVBL
WAIMEA BAY BUOY  1500      82                N/A     5/11
KAILUA BAY BUOY  1500      83                N/A     4/11   2
LANAI BUOY       NOT AVBL
BARBERS PT 2     1500      83                N/A     4/15   3/190
PAUWELA MAUI     1500      81                N/A     4/11   2/340
HILO             1500      81                N/A     4/11   2/ 30
KANEOHE BAY BUOY NOT AVBL
HANALEI KAUAI    NOT AVBL
KAHULUI HARBOR   1500   78 83  290/  4/  5 1013.5
HONOLULU HARBOR  1500   79     330/  2/  4 1013.9
KILO NALU        NOT AVBL
HILO HARBOR      1500   73     230/  5/  5 1013.0
MOKUOLOE         1500   81 85   40/  5/  7 1014.0R
NAWILIWILI       1500      83                N/A
WHOTS BUOY       NOT AVBL
BUOY 51028       NOT AVBL
$$

......................KEY........................................
  SKY/WX - SKY CONDITIONS/PRESENT WEATHER
  TMP    - TEMPERATURE IN FAHRENHEIT
  DWPT   - DEWPOINT IN FAHRENHEIT
  RH     - RELATIVE HUMIDITY IN PERCENT
  WIND   - DIRECTION AND SPEED /MPH FOR ISLANDS...KTS FOR BUOYS/
  PRES   - MEAN SEA LEVEL PRESSURE IN INCHES OF HG
  VSB    - VISIBILITY IN MILES
  HX     - HEAT INDEX
  WCI    - WIND CHILL INDEX
  VRB    - VARIABLE WIND DIRECTION
  N/A    - NOT AVAILABLE



USA.gov is the U.S. government's official web portal to all federal, state and local government web resources and services.